[[{"header":{"parameterUnit":"m.s-1","parameterCategory":1,"la1":30.2991,"la2":30.254,"lo1":-89.0895,"lo2":-89.0444,"dy":0.0017,"dx":0.0017,"nx":28,"ny":28,"refTime":"2025-04-04T09:00:00:Z","depth":0,"parameterNumber":2,"parameterNumberName":"U-component_of_WINDS"},"data":[0,0,0,0,0,0,0,0,0,0,0,0,0,0,0,0,0,0,0,0,0,0,0,0,0,0,0,0,0,0,0,0,0,0,0,0,0,0,0,0,0,0,0,0,0,0,0,0,0,0,0,0,0,0,0,0,0,0,-5.5424,-5.5425,0,-5.5523,-5.5524,-5.5526,-5.5518,-5.5517,-5.5515,-5.5514,-5.5613,-5.5617,-5.5621,0,0,0,0,0,0,0,0,0,0,0,0,0,-5.5227,-5.5231,-5.5424,-5.5425,-5.5426,-5.5523,-5.5524,-5.5526,-5.5518,-5.5517,-5.5515,-5.5513,-5.5612,-5.5617,-5.5622,0,0,0,0,0,0,0,0,0,0,0,0,0,-5.5318,-5.5232,-5.5424,-5.5434,-5.5436,-5.5523,-5.5524,-5.5526,-5.5519,-5.5517,-5.5514,-5.5512,-5.5611,-5.5616,-5.5622,-5.5704,0,0,-5.5641,-5.5643,0,0,0,0,0,0,0,0,-5.5313,-5.5325,-5.5432,-5.5434,-5.5436,-5.5506,-5.5492,-5.5586,-5.5519,-5.5487,-5.5514,-5.5511,-5.5579,-5.5588,-5.5611,-5.5709,-5.5713,-5.5641,-5.5645,-5.5648,-5.5649,0,0,0,0,0,0,0,-5.5307,-5.5321,-5.5463,-5.5433,-5.5436,-5.5434,-5.5445,-5.5509,-5.5545,-5.549,-5.549,-5.5502,-5.558,-5.5605,-5.5614,-5.5714,-5.5641,-5.5647,-5.565,-5.5653,-5.5884,-5.5887,0,0,0,0,0,0,-5.5298,-5.5316,-5.546,-5.5466,-5.5368,-5.5439,-5.5451,-5.5486,-5.5544,-5.5551,-5.5504,-5.5501,-5.5596,-5.5606,-5.5617,-5.5716,-5.5648,-5.5653,-5.5657,-5.5882,-5.5885,-5.5887,0,0,0,0,0,0,-5.5294,-5.5311,-5.5456,-5.5391,-5.5409,-5.5445,-5.5484,-5.5489,-5.5514,-5.5554,-5.556,-5.5523,-5.5595,-5.5609,-5.5683,-5.5719,-5.5656,-5.5661,-5.5879,-5.5883,-5.5886,-5.5914,0,0,0,0,0,0,-5.5288,-5.531,-5.5341,-5.5392,-5.5413,-5.552,-5.5487,-5.5493,-5.5525,-5.5523,-5.5574,-5.558,-5.5594,-5.5674,-5.5689,-5.5726,-5.5666,-5.5875,-5.588,-5.5885,-5.591,-5.5919,-5.5926,0,0,0,0,0,-5.5281,-5.5344,-5.5342,-5.536,-5.5453,-5.5522,-5.5534,-5.5549,-5.5528,-5.5559,-5.5585,-5.5578,-5.5714,-5.5681,-5.5698,-5.5738,-5.5873,-5.5879,-5.5885,-5.5907,-5.5917,-5.5926,0,0,0,0,0,0,-5.5295,-5.5351,-5.535,-5.5431,-5.5472,-5.5521,-5.5561,-5.556,-5.5607,-5.5603,-5.562,-5.5631,-5.5706,-5.573,-5.5693,-5.5821,-5.579,-5.58,-5.5801,-5.5812,-5.5819,-5.5811,-5.5671,0,0,0,0,0,-5.5308,-5.536,-5.5406,-5.5474,-5.5494,-5.5524,-5.5555,-5.5564,-5.5607,-5.5624,-5.5655,-5.5696,-5.5748,-5.5782,-5.5832,-5.5915,-5.5925,-5.5951,-5.5959,-5.5965,-5.5972,-5.6018,-5.6029,-5.5906,-5.5906,-5.5906,0,0,-5.5334,-5.5371,-5.5403,-5.5477,-5.551,-5.5563,-5.5539,-5.5596,-5.5635,-5.5632,-5.5704,-5.5729,-5.5776,-5.5855,-5.5892,-5.5877,-5.6009,-5.5972,-5.5977,-5.598,-5.6025,-5.6036,-5.6046,-5.591,-5.5909,-5.5909,0,0,-5.5409,-5.5443,-5.5503,-5.5537,-5.5587,-5.5607,-5.5622,-5.5672,-5.5688,-5.5761,-5.576,-5.5807,-5.5896,-5.593,-5.5959,-5.605,-5.6045,-5.6066,-5.6105,-5.6149,-5.6159,-5.6168,-5.6199,-5.621,-5.6073,-5.6073,-5.6073,0,-5.5435,-5.5515,-5.5533,-5.5591,-5.5624,-5.5626,-5.5686,-5.5718,-5.5782,-5.5804,-5.5788,-5.5901,-5.5933,-5.602,-5.6042,-5.6066,-5.6082,-5.6058,-5.6156,-5.6165,-5.6174,-5.6203,-5.6215,-5.6075,-5.6075,-5.6075,-5.6075,0,-5.5544,-5.5601,-5.5643,-5.5705,-5.5743,-5.5802,-5.5829,-5.5865,-5.5872,-5.5893,-5.5968,-5.6007,-5.6065,-5.6087,-5.6093,-5.6175,-5.6165,-5.6153,-5.6122,-5.6187,-5.6215,-5.6227,-5.6078,-5.6077,-5.6077,-5.6076,0,0,-5.5627,-5.5701,-5.5716,-5.5745,-5.5802,-5.5846,-5.5906,-5.5963,-5.5993,-5.6039,-5.6088,-5.6165,-5.6155,-5.6187,-5.6198,-5.6238,-5.6306,-5.6221,-5.6222,-5.6234,-5.6398,-5.6405,-5.6418,-5.6305,-5.6307,-5.6309,-5.6393,0,-5.5706,-5.5812,-5.5831,-5.5923,-5.5975,-5.5979,-5.6031,-5.6071,-5.6094,-5.6141,-5.6166,-5.622,-5.6203,-5.6223,-5.6262,-5.6289,-5.6339,-5.6284,-5.635,-5.6352,-5.6335,-5.6433,-5.644,-5.6517,-5.6405,-5.6406,-5.6408,0,-5.5812,-5.5861,-5.5958,-5.6009,-5.6032,-5.6078,-5.6133,-5.6179,-5.6225,-5.6239,-5.6277,-5.6284,-5.6346,-5.6315,-5.6401,-5.6363,-5.6392,-5.641,-5.6413,-5.6417,-5.6382,-5.6438,-5.6543,-5.6553,-5.6426,-5.6424,-5.6423,0,-5.586,-5.5951,-5.6021,-5.6046,-5.6107,-5.614,-5.6167,-5.6212,-5.6246,-5.6294,-5.6316,-5.6371,-5.6401,-5.6443,-5.6465,-5.6441,-5.6549,-5.652,-5.6561,-5.656,-5.658,-5.6578,-5.6689,-5.6603,-5.6603,-5.6603,-5.6603,0,-5.5945,-5.6004,-5.6043,-5.6086,-5.6153,-5.6175,-5.624,-5.6267,-5.6307,-5.6355,-5.6362,-5.6407,-5.6434,-5.6483,-5.65,-5.6568,-5.6582,-5.6594,-5.6598,-5.6592,-5.659,-5.6609,-5.6603,-5.6606,-5.6605,-5.6605,-5.6604,0,-5.6009,-5.6038,-5.6114,-5.6168,-5.6183,-5.6229,-5.6275,-5.6316,-5.6341,-5.6401,-5.6417,-5.6454,-5.6512,-5.6539,-5.661,-5.6622,-5.6698,-5.6699,-5.6682,-5.6683,-5.6722,-5.6717,-5.6847,-5.6864,-5.6769,-5.677,-5.677,0,-5.606,-5.6106,-5.6165,-5.6198,-5.6226,-5.6279,-5.6314,-5.6339,-5.6375,-5.6433,-5.6467,-5.6526,-5.6574,-5.6667,-5.67,-5.6755,-5.6756,-5.6798,-5.6764,-5.6757,-5.6754,-5.675,-5.6754,-5.6802,-5.6803,-5.6804,-5.6805,0,-5.6147,-5.6159,-5.621,-5.6266,-5.6308,-5.6353,-5.6397,-5.6424,-5.6456,-5.6496,-5.6556,-5.6593,-5.6667,-5.6725,-5.6783,-5.6811,-5.6813,-5.6816,-5.6828,-5.6821,-5.6809,-5.6814,-5.6697,-5.6812,-5.6811,-5.6811,-5.681,-5.681,-5.6205,-5.6245,-5.6293,-5.635,-5.6386,-5.6428,-5.647,-5.65,-5.655,-5.6612,-5.6625,-5.6688,-5.6735,-5.6813,-5.6843,-5.6893,-5.6883,-5.6901,-5.6905,-5.6909,-5.691,-5.6803,-5.6904,-5.6904,-5.6904,-5.6904,-5.6904,0,-5.629,-5.6322,-5.6374,-5.6436,-5.648,-5.6481,-5.6531,-5.6567,-5.6623,-5.6667,-5.6715,-5.6784,-5.6841,-5.688,-5.6937,-5.697,-5.6972,-5.6984,-5.698,-5.6987,-5.6916,-5.6899,-5.6981,-5.6981,-5.6981,-5.6981,-5.6981,-5.6981,-5.6339,-5.6408,-5.6427,-5.6514,-5.6546,-5.6609,-5.6637,-5.6675,-5.6711,-5.6788,-5.6835,-5.6861,-5.6903,-5.6964,-5.7016,-5.7026,-5.7046,-5.7058,-5.7067,-5.7,-5.6992,-5.6984,-5.6968,-5.7063,-5.7063,-5.7133,-5.7134,-5.7135]},{"header":{"parameterUnit":"m.s-1","parameterCategory":1,"la1":30.2991,"la2":30.254,"lo1":-89.0895,"lo2":-89.0444,"dy":0.0017,"dx":0.0017,"nx":28,"ny":28,"refTime":"2025-04-04T09:00:00:Z","depth":0,"parameterNumber":3,"parameterNumberName":"V-component_of_WINDS"},"data":[0,0,0,0,0,0,0,0,0,0,0,0,0,0,0,0,0,0,0,0,0,0,0,0,0,0,0,0,0,0,0,0,0,0,0,0,0,0,0,0,0,0,0,0,0,0,0,0,0,0,0,0,0,0,0,0,0,0,3.727,3.7272,0,3.7375,3.7376,3.7377,3.7404,3.7403,3.7403,3.7402,3.7507,3.7511,3.7514,0,0,0,0,0,0,0,0,0,0,0,0,0,3.7095,3.7098,3.727,3.7272,3.7273,3.7375,3.7376,3.7378,3.7404,3.7403,3.7403,3.7402,3.7506,3.751,3.7514,0,0,0,0,0,0,0,0,0,0,0,0,0,3.7182,3.7099,3.727,3.7299,3.7302,3.7375,3.7376,3.7378,3.7404,3.7403,3.7402,3.7401,3.7505,3.751,3.7515,3.7566,0,0,3.7531,3.7533,0,0,0,0,0,0,0,0,3.7177,3.7188,3.7293,3.7297,3.7301,3.7376,3.7353,3.7441,3.7405,3.7365,3.7402,3.7401,3.7464,3.7473,3.7494,3.7571,3.7575,3.7531,3.7534,3.7536,3.7538,0,0,0,0,0,0,0,3.7171,3.7184,3.7312,3.7295,3.7299,3.7306,3.7318,3.737,3.7419,3.7369,3.7371,3.7383,3.7466,3.7489,3.7497,3.7577,3.7531,3.7535,3.7539,3.7541,3.7705,3.7706,0,0,0,0,0,0,3.716,3.7179,3.7308,3.7315,3.7235,3.731,3.7323,3.7352,3.7418,3.7428,3.7384,3.7384,3.7481,3.7491,3.7501,3.7568,3.7536,3.7541,3.7544,3.7704,3.7705,3.7707,0,0,0,0,0,0,3.7156,3.7171,3.7304,3.7248,3.7265,3.7314,3.7347,3.7355,3.7378,3.743,3.7439,3.7398,3.7481,3.7494,3.7551,3.7572,3.7543,3.7548,3.7702,3.7704,3.7706,3.77,0,0,0,0,0,0,3.7151,3.717,3.7189,3.7248,3.7268,3.7352,3.7349,3.7358,3.7387,3.7388,3.7446,3.7454,3.7481,3.7543,3.7556,3.7578,3.7552,3.7701,3.7703,3.7705,3.7699,3.7702,3.7705,0,0,0,0,0,3.7145,3.7182,3.719,3.7205,3.7293,3.7353,3.7365,3.7395,3.7389,3.7409,3.7443,3.7453,3.7567,3.7549,3.7563,3.7588,3.7699,3.7702,3.7705,3.7698,3.7701,3.7705,0,0,0,0,0,0,3.7123,3.719,3.72,3.7257,3.73,3.7357,3.7384,3.7397,3.7441,3.744,3.7475,3.7488,3.7544,3.7571,3.7549,3.7643,3.7633,3.7639,3.7623,3.7627,3.7629,3.7622,3.7556,0,0,0,0,0,3.7125,3.7168,3.7224,3.727,3.7291,3.7334,3.7361,3.7381,3.7426,3.7443,3.7481,3.7524,3.757,3.76,3.7645,3.7703,3.7717,3.7727,3.773,3.7732,3.7737,3.7774,3.778,3.7716,3.7716,3.7716,0,0,3.713,3.7172,3.7196,3.7267,3.7302,3.7347,3.7349,3.7395,3.7429,3.745,3.7508,3.7537,3.7587,3.7646,3.7674,3.7671,3.7758,3.7736,3.7737,3.7741,3.7777,3.7783,3.7789,3.7718,3.7718,3.7718,0,0,3.7161,3.7196,3.724,3.7276,3.733,3.7359,3.7369,3.7426,3.7447,3.7505,3.7524,3.7564,3.7642,3.7679,3.7707,3.7757,3.7768,3.777,3.7785,3.782,3.7825,3.783,3.785,3.7857,3.7775,3.7775,3.7775,0,3.716,3.7228,3.726,3.7307,3.7339,3.7362,3.7408,3.744,3.7506,3.7527,3.7523,3.7624,3.7659,3.7729,3.7741,3.7763,3.7777,3.7764,3.7822,3.7827,3.7832,3.7851,3.7859,3.7775,3.7775,3.7775,3.7775,0,3.7225,3.7272,3.7301,3.7366,3.7401,3.7446,3.7486,3.7518,3.7535,3.7565,3.7626,3.767,3.7726,3.7743,3.776,3.7816,3.7813,3.7815,3.7807,3.7837,3.7857,3.7864,3.7775,3.7775,3.7775,3.7775,0,0,3.7245,3.7329,3.734,3.7371,3.7434,3.7471,3.7519,3.7575,3.7602,3.7647,3.7689,3.7756,3.776,3.7792,3.7813,3.7844,3.7884,3.7842,3.7844,3.7851,3.7953,3.7953,3.7961,3.7892,3.7894,3.7895,3.795,0,3.7286,3.7373,3.7405,3.7476,3.7522,3.7546,3.7589,3.7632,3.7662,3.7705,3.7738,3.7786,3.7785,3.7806,3.7837,3.7873,3.7905,3.7869,3.7933,3.7935,3.7922,3.797,3.797,3.8019,3.7957,3.7958,3.7959,0,3.7345,3.7393,3.747,3.753,3.7551,3.7588,3.7644,3.7685,3.7735,3.7755,3.7794,3.7814,3.7866,3.7854,3.7928,3.7903,3.7931,3.7953,3.7956,3.7964,3.795,3.7982,3.8035,3.8044,3.7971,3.797,3.7969,0,3.7355,3.7438,3.7496,3.7522,3.7593,3.7619,3.765,3.77,3.7733,3.7782,3.7804,3.7858,3.7888,3.7929,3.7964,3.7952,3.8036,3.8026,3.8055,3.8055,3.8073,3.8071,3.8133,3.8088,3.8087,3.8087,3.8087,0,3.7398,3.7445,3.7502,3.7538,3.7592,3.7629,3.7681,3.7713,3.7758,3.7802,3.7825,3.7865,3.7908,3.7954,3.7981,3.804,3.8053,3.8071,3.8078,3.8071,3.8069,3.8091,3.8089,3.8089,3.8089,3.8088,3.8088,0,3.7418,3.7458,3.7524,3.7587,3.7604,3.7641,3.7696,3.7732,3.7764,3.7819,3.7834,3.7884,3.794,3.7978,3.8049,3.8068,3.8133,3.8138,3.8116,3.812,3.8148,3.8146,3.8227,3.8241,3.8184,3.8185,3.8185,0,3.7444,3.7481,3.755,3.7581,3.7613,3.7662,3.7697,3.7735,3.7771,3.7834,3.7863,3.7921,3.7969,3.8058,3.81,3.8156,3.8164,3.8189,3.8172,3.8165,3.8168,3.8166,3.8171,3.8192,3.8192,3.8193,3.8193,0,3.7487,3.7506,3.7555,3.7613,3.7654,3.7701,3.7748,3.7772,3.7819,3.7858,3.7916,3.7954,3.8028,3.8086,3.8147,3.8179,3.8195,3.8198,3.8208,3.8201,3.8188,3.8199,3.8125,3.8196,3.8196,3.8195,3.8195,3.8195,3.7512,3.7548,3.7603,3.7658,3.7698,3.7742,3.7781,3.7819,3.7868,3.7933,3.7953,3.8014,3.8067,3.815,3.8184,3.8233,3.8231,3.8245,3.8249,3.8253,3.8254,3.8179,3.8244,3.8244,3.8244,3.8244,3.8244,0,3.7559,3.7596,3.7647,3.7713,3.7757,3.7769,3.7823,3.7859,3.7913,3.7962,3.801,3.8079,3.8136,3.8185,3.8245,3.8275,3.8284,3.8289,3.8289,3.8297,3.8251,3.8237,3.8282,3.8282,3.8281,3.8281,3.8281,3.8281,3.7588,3.765,3.7676,3.7759,3.7796,3.7857,3.7888,3.7929,3.7969,3.8045,3.8094,3.8125,3.8175,3.8239,3.8293,3.8306,3.8328,3.8332,3.8347,3.8303,3.8299,3.8295,3.8283,3.8336,3.8336,3.8389,3.839,3.839]}]]